Location: Unspecified
(50.7693°N, 0.0000°E)
Time: 10:54:44
(UTC+00:00)

Vanguard 1 Rocket - Pass Details

Date: 29 June 2019
Orbit: 650 x 4226 km, 34.3° (Epoch: 13 October)

Event Time Altitude Azimuth Distance (km) Brightness Sun altitude
Rises 16:18:56 0° 241° (WSW) 8,303 13.2 34.2°
Reaches altitude 10° 16:25:37 10° 236° (SW) 6,977 12.9 33.1°
Maximum altitude 16:44:15 40° 177° (S) 3,561 10.7 30.2°
Drops below altitude 10° 16:55:05 10° 114° (ESE) 4,150 10.3 28.4°
Sets 16:57:55 0° 106° (ESE) 4,770 10.5 28.0°
